This demonstration page uses our WeatherBlox Daily Observations layout. Learn more.

Left ArrowRight Arrow

Hourly Observations for September 19, 2018

Temp ( °F °C ) Dew Point ( °F °C ) Humidity (%) Winds ( mph kmh ) Pressure ( in mb ) Visibility ( mi km ) Precip ( " mm )
12:53 am 00:53 Clear 69 20.6 67 19.4 93 93 Calm 29.91 1013 7 11 0.00 0.00
1:53 am 01:53 Mostly Clear with Mist and Fog 69 20.6 68 20 96 96 Calm 29.92 1013 4 6 0.00 0.00
2:14 am 02:14 Clear with Mist and Fog 68 20 67 19.4 96 96 Calm 29.94 1014 2 2 0.00 0.00
2:24 am 02:24 Mostly Clear with Mist and Fog 68 20 67 19.4 96 96 Calm 29.94 1014 2 3 0.00 0.00
2:31 am 02:31 Mostly Clear with Mist and Fog 67 19.4 66 18.9 97 97 Calm 29.94 1014 2 3 0.00 0.00
2:40 am 02:40 Clear with Mist and Fog 68 20 66 18.9 93 93 Calm 29.94 1014 3 5 0.00 0.00
2:43 am 02:43 Mostly Clear with Mist and Fog 68 20 66 18.9 93 93 Calm 29.94 1014 3 4 0.00 0.00
2:45 am 02:45 Partly Cloudy with Mist and Fog 68 20 66 18.9 93 93 Calm 29.94 1014 1 2 0.00 0.00
2:53 am 02:53 Mostly Cloudy with Fog 67 19.4 66 18.9 97 97 Calm 29.92 1013 1 1 0.00 0.00
2:58 am 02:58 Partly Cloudy with Mist and Fog 68 20 66 18.9 93 93 Calm 29.94 1014 1 2 0.00 0.00
3:00 am 03:00 Mostly Cloudy with Mist and Fog 68 20 66 18.9 93 93 Calm 29.94 1014 3 4 0.00 0.00
3:07 am 03:07 Mostly Cloudy with Mist and Fog 67 19.4 66 18.9 97 97 Calm 29.94 1014 5 8 0.00 0.00
3:23 am 03:23 Partly Cloudy with Mist and Fog 68 20 67 19.4 96 96 Calm 29.94 1014 3 5 0.00 0.00
3:49 am 03:49 Mostly Clear with Mist and Fog 66 19 64 18 94 94 Calm 29.94 1014 2 2 0.00 0.00
3:53 am 03:53 Mostly Cloudy with Fog 67 19.4 66 18.9 97 97 Calm 29.91 1013 1 1 0.00 0.00
4:16 am 04:16 Partly Cloudy with Mist and Fog 66 18.9 65 18.3 96 96 WNW 3 6 29.94 1014 1 2 0.00 0.00
4:22 am 04:22 Partly Cloudy with Mist and Fog 67 19.4 66 18.9 97 97 Calm 29.94 1014 2 3 0.00 0.00
4:30 am 04:30 Mostly Clear with Mist and Fog 68 20 66 18.9 93 93 Calm 29.94 1014 5 8 0.00 0.00
4:53 am 04:53 Clear with Mist and Fog 67 19.4 65 18.3 93 93 Calm 29.93 1014 5 8 0.00 0.00
5:12 am 05:12 Clear with Mist and Fog 66 18.9 65 18.3 96 96 Calm 29.94 1014 3 4 0.00 0.00
5:19 am 05:19 Clear with Mist and Fog 67 19.4 66 18.9 97 97 VRB 5 7 29.97 1015 5 8 0.00 0.00
5:53 am 05:53 Clear 70 21.1 67 19.4 90 90 N 5 7 29.95 1014 10 16 0.00 0.00
6:53 am 06:53 Clear 69 20.6 67 19.4 93 93 Calm 29.97 1015 10 16 0.00 0.00
7:53 am 07:53 Mostly Cloudy with Light Rain 69 20.6 67 19.4 93 93 Calm 29.99 1016 6 10 0.00 0.03
8:53 am 08:53 Partly Cloudy 72 22.2 69 20.6 91 91 NW 3 6 29.99 1016 7 11 0.00 0.03
9:53 am 09:53 Partly Cloudy with Light Rain 76 24.4 69 20.6 79 79 Calm 30.00 1016 10 16 0.00 0.03
10:53 am 10:53 Mostly Sunny 79 26.1 70 21.1 74 74 Calm 30.01 1016 10 16 0.00 0.03
11:53 am 11:53 Mostly Sunny 82 27.8 70 21.1 67 67 Calm 30.02 1017 10 16 0.00 0.00
12:53 pm 12:53 Sunny 85 29.4 70 21.1 61 61 Calm 30.01 1016 10 16 0.00 0.00
1:53 pm 13:53 Sunny 86 30 68 20 55 55 Calm 30.00 1016 10 16 0.00 0.00
2:53 pm 14:53 Sunny 88 31.1 70 21.1 55 55 WSW 5 7 29.98 1015 10 16 0.00 0.00
3:53 pm 15:53 Sunny 89 31.7 68 20 50 50 Calm 29.97 1015 10 16 0.00 0.00
4:53 pm 16:53 Sunny 89 31.7 70 21.1 53 53 Calm 29.96 1015 10 16 0.00 0.00
5:53 pm 17:53 Mostly Cloudy 86 30 74 23.3 67 67 Calm 29.96 1014 10 16 0.00 0.00
6:53 pm 18:53 Mostly Sunny 80 26.7 74 23.3 82 82 Calm 29.97 1015 10 16 0.00 0.00
7:53 pm 19:53 Clear 76 24.4 73 22.8 91 91 Calm 29.99 1016 10 16 0.00 0.00
8:53 pm 20:53 Clear 74 23.3 71 21.7 91 91 Calm 30.00 1016 8 13 0.00 0.00
9:53 pm 21:53 Clear 72 22.2 70 21.1 94 94 Calm 30.01 1016 9 14 0.00 0.00
10:53 pm 22:53 Clear 71 21.7 69 20.6 94 94 Calm 30.01 1016 8 13 0.00 0.00
11:53 pm 23:53 Clear 70 21.1 69 20.6 97 97 Calm 30.01 1016 7 11 0.00 0.00

Powered by AerisWeather